| time (UTC) | temp F | wind direction | speed MPH | gust MPH | rain 1hr in | rain 24hr in | rain mn in | humidity % | barometer mb |
| 20260505171012 | 55 | 5 | 2.0 | 7.0 | 0.00 | 0.00 | 0.00 | 70 | 1013.5 |
| 20260505170512 | 55 | 344 | 2.0 | 7.0 | 0.00 | 0.00 | 0.00 | 69 | 1013.5 |
| 20260505170036 | 55 | 347 | 0.0 | 3.0 | 0.00 | 0.00 | 0.00 | 69 | 1013.6 |
| 20260505165511 | 55 | 324 | 1.0 | 3.0 | 0.00 | 0.00 | 0.00 | 66 | 1013.6 |
| 20260505165012 | 55 | 48 | 1.0 | 7.0 | 0.00 | 0.00 | 0.00 | 68 | 1013.5 |
| 20260505164534 | 55 | 12 | 1.0 | 7.0 | 0.00 | 0.00 | 0.00 | 69 | 1013.5 |
| 20260505164012 | 55 | 345 | 1.0 | 4.0 | 0.00 | 0.00 | 0.00 | 68 | 1013.5 |
| 20260505163508 | 55 | 345 | 1.0 | 4.0 | 0.00 | 0.00 | 0.00 | 67 | 1013.5 |
| 20260505163029 | 55 | 0 | 1.0 | 4.0 | 0.00 | 0.00 | 0.00 | 67 | 1013.5 |
| 20260505162515 | 55 | 335 | 1.0 | 8.0 | 0.00 | 0.00 | 0.00 | 66 | 1013.4 |
| 20260505162011 | 56 | 325 | 2.0 | 8.0 | 0.00 | 0.00 | 0.00 | 67 | 1013.4 |
| 20260505161530 | 56 | 319 | 2.0 | 8.0 | 0.00 | 0.00 | 0.00 | 66 | 1013.3 |
| 20260505161011 | 56 | 355 | 1.0 | 8.0 | 0.00 | 0.00 | 0.00 | 69 | 1013.2 |
| 20260505160516 | 55 | 5 | 2.0 | 5.0 | 0.00 | 0.00 | 0.00 | 68 | 1013.2 |
| 20260505153028 | 57 | 338 | 1.0 | 6.0 | 0.00 | 0.00 | 0.00 | 64 | 1013.5 |
| 20260505152512 | 57 | 308 | 1.0 | 3.0 | 0.00 | 0.00 | 0.00 | 65 | 1013.4 |
| 20260505152013 | 57 | 0 | 1.0 | 4.0 | 0.00 | 0.00 | 0.00 | 65 | 1013.5 |
| 20260505151534 | 57 | 296 | 0.0 | 5.0 | 0.00 | 0.00 | 0.00 | 63 | 1013.6 |
| 20260505151012 | 57 | 31 | 1.0 | 5.0 | 0.00 | 0.00 | 0.00 | 67 | 1013.5 |
| 20260505150513 | 56 | 49 | 1.0 | 5.0 | 0.00 | 0.00 | 0.00 | 68 | 1013.5 |
| 20260505140512 | 57 | 314 | 1.0 | 5.0 | 0.00 | 0.00 | 0.00 | 64 | 1013.7 |
| 20260505125011 | 57 | 0 | 2.0 | 7.0 | 0.00 | 0.00 | 0.00 | 66 | 1013.9 |
| 20260505124528 | 56 | 350 | 2.0 | 7.0 | 0.00 | 0.00 | 0.00 | 66 | 1013.9 |
| 20260505124010 | 56 | 351 | 1.0 | 5.0 | 0.00 | 0.00 | 0.00 | 67 | 1013.8 |
| 20260505123511 | 57 | 10 | 2.0 | 5.0 | 0.00 | 0.00 | 0.00 | 65 | 1013.9 |
| 20260505123029 | 57 | 336 | 2.0 | 5.0 | 0.00 | 0.00 | 0.00 | 64 | 1013.8 |
| 20260505122512 | 57 | 342 | 1.0 | 6.0 | 0.00 | 0.00 | 0.00 | 65 | 1013.8 |
| 20260505122015 | 58 | 346 | 2.0 | 10.0 | 0.00 | 0.00 | 0.00 | 62 | 1013.9 |
| 20260505121536 | 58 | 42 | 2.0 | 10.0 | 0.00 | 0.00 | 0.00 | 63 | 1013.9 |
| 20260505121008 | 57 | 36 | 2.0 | 5.0 | 0.00 | 0.00 | 0.00 | 66 | 1013.8 |
| 20260505120516 | 57 | 352 | 1.0 | 5.0 | 0.00 | 0.00 | 0.00 | 64 | 1014.0 |
| 20260505120030 | 57 | 11 | 1.0 | 5.0 | 0.00 | 0.00 | 0.00 | 64 | 1013.9 |
| 20260505115509 | 58 | 53 | 2.0 | 10.0 | 0.00 | 0.00 | 0.00 | 62 | 1013.9 |
| 20260505115015 | 59 | 338 | 1.0 | 10.0 | 0.00 | 0.00 | 0.00 | 61 | 1013.8 |
| 20260505114530 | 59 | 24 | 2.0 | 10.0 | 0.00 | 0.00 | 0.00 | 64 | 1013.9 |
| 20260505114012 | 58 | 0 | 1.0 | 10.0 | 0.00 | 0.00 | 0.00 | 68 | 1014.0 |
| 20260505113511 | 56 | 360 | 2.0 | 10.0 | 0.00 | 0.00 | 0.00 | 70 | 1014.1 |
| 20260505113038 | 55 | 57 | 2.0 | 4.0 | 0.00 | 0.00 | 0.00 | 65 | 1014.2 |
| 20260505112511 | 55 | 348 | 2.0 | 4.0 | 0.00 | 0.00 | 0.00 | 66 | 1014.1 |
| 20260505112011 | 56 | 327 | 2.0 | 7.0 | 0.00 | 0.00 | 0.00 | 65 | 1014.2 |
| 20260505111540 | 57 | 317 | 1.0 | 9.0 | 0.00 | 0.00 | 0.00 | 64 | 1014.2 |
| 20260505111008 | 56 | 59 | 2.0 | 9.0 | 0.00 | 0.00 | 0.00 | 72 | 1014.3 |
| 20260505110508 | 56 | 327 | 1.0 | 8.0 | 0.00 | 0.00 | 0.00 | 67 | 1014.1 |
| 20260505102011 | 55 | 19 | 1.0 | 5.0 | 0.00 | 0.00 | 0.00 | 70 | 1014.6 |
| 20260505101533 | 55 | 16 | 2.0 | 9.0 | 0.00 | 0.00 | 0.00 | 72 | 1014.6 |
| 20260505101009 | 55 | 24 | 1.0 | 9.0 | 0.00 | 0.00 | 0.00 | 71 | 1014.6 |
| 20260505100508 | 56 | 304 | 2.0 | 9.0 | 0.00 | 0.00 | 0.00 | 74 | 1014.5 |
| 20260505100028 | 55 | 71 | 2.0 | 5.0 | 0.00 | 0.00 | 0.00 | 76 | 1014.5 |
| 20260505095508 | 54 | 355 | 1.0 | 4.0 | 0.00 | 0.00 | 0.00 | 76 | 1014.6 |
| 20260505095012 | 53 | 83 | 1.0 | 5.0 | 0.00 | 0.00 | 0.00 | 74 | 1014.7 |
| 20260505094530 | 54 | 9 | 1.0 | 5.0 | 0.00 | 0.00 | 0.00 | 73 | 1014.6 |
| 20260505094011 | 54 | 15 | 1.0 | 5.0 | 0.00 | 0.00 | 0.00 | 73 | 1014.6 |
| 20260505093511 | 53 | 348 | 1.0 | 5.0 | 0.00 | 0.00 | 0.00 | 74 | 1014.6 |
| 20260505093034 | 53 | 27 | 1.0 | 9.0 | 0.00 | 0.00 | 0.00 | 74 | 1014.6 |
| 20260505092512 | 53 | 0 | 2.0 | 9.0 | 0.00 | 0.00 | 0.00 | 75 | 1014.8 |
| 20260505092013 | 53 | 304 | 2.0 | 7.0 | 0.00 | 0.00 | 0.00 | 75 | 1014.7 |
| 20260505091529 | 53 | 75 | 2.0 | 7.0 | 0.00 | 0.00 | 0.00 | 76 | 1014.6 |
| 20260505091012 | 52 | 342 | 1.0 | 8.0 | 0.00 | 0.00 | 0.00 | 76 | 1014.7 |
| 20260505090511 | 52 | 0 | 2.0 | 8.0 | 0.00 | 0.00 | 0.00 | 77 | 1014.7 |
| 20260505090032 | 52 | 323 | 1.0 | 3.0 | 0.00 | 0.00 | 0.00 | 76 | 1014.7 |
| 20260505085512 | 51 | 31 | 1.0 | 5.0 | 0.00 | 0.00 | 0.00 | 76 | 1014.7 |
| 20260505085010 | 52 | 9 | 1.0 | 5.0 | 0.00 | 0.00 | 0.00 | 76 | 1014.8 |
| 20260505084531 | 53 | 5 | 1.0 | 5.0 | 0.00 | 0.00 | 0.00 | 75 | 1014.9 |
| 20260505084014 | 53 | 321 | 1.0 | 7.0 | 0.00 | 0.00 | 0.00 | 78 | 1014.9 |
| 20260505083513 | 54 | 9 | 1.0 | 7.0 | 0.00 | 0.00 | 0.00 | 80 | 1014.9 |
| 20260505083031 | 53 | 11 | 3.0 | 7.0 | 0.00 | 0.00 | 0.00 | 81 | 1014.9 |
| 20260505082511 | 52 | 13 | 2.0 | 7.0 | 0.00 | 0.00 | 0.00 | 82 | 1015.0 |
| 20260505082011 | 51 | 61 | 2.0 | 6.0 | 0.00 | 0.00 | 0.00 | 84 | 1015.0 |
| 20260505081530 | 50 | 55 | 1.0 | 4.0 | 0.00 | 0.00 | 0.00 | 82 | 1015.1 |
| 20260505081013 | 50 | 0 | 0.0 | 5.0 | 0.00 | 0.00 | 0.00 | 83 | 1015.1 |
| 20260505080510 | 50 | 0 | 1.0 | 5.0 | 0.00 | 0.00 | 0.00 | 83 | 1015.1 |
| 20260505080031 | 50 | 352 | 1.0 | 5.0 | 0.00 | 0.00 | 0.00 | 84 | 1015.2 |
| 20260505075507 | 50 | 0 | 1.0 | 5.0 | 0.00 | 0.00 | 0.00 | 83 | 1015.2 |
| 20260505075008 | 49 | 355 | 1.0 | 5.0 | 0.00 | 0.00 | 0.00 | 83 | 1015.2 |
| 20260505074530 | 49 | 5 | 1.0 | 5.0 | 0.00 | 0.00 | 0.00 | 85 | 1015.0 |
| 20260505074010 | 49 | 350 | 1.0 | 5.0 | 0.00 | 0.00 | 0.00 | 88 | 1015.1 |
| 20260505073509 | 49 | 48 | 2.0 | 5.0 | 0.00 | 0.00 | 0.00 | 88 | 1015.1 |
| 20260505073030 | 49 | 338 | 1.0 | 5.0 | 0.00 | 0.00 | 0.00 | 87 | 1015.1 |
| 20260505072511 | 49 | 325 | 1.0 | 4.0 | 0.00 | 0.00 | 0.00 | 87 | 1014.9 |
| 20260505072011 | 49 | 306 | 1.0 | 4.0 | 0.00 | 0.00 | 0.00 | 87 | 1015.1 |
| 20260505071532 | 49 | 350 | 1.0 | 4.0 | 0.00 | 0.00 | 0.00 | 87 | 1015.0 |
| 20260505071011 | 49 | 49 | 1.0 | 4.0 | 0.00 | 0.00 | 0.00 | 88 | 1015.0 |
| 20260505070511 | 48 | 5 | 2.0 | 7.0 | 0.00 | 0.00 | 0.00 | 88 | 1015.0 |
| 20260505070029 | 48 | 360 | 2.0 | 7.0 | 0.00 | 0.00 | 0.00 | 88 | 1015.0 |
| 20260505065511 | 48 | 19 | 0.0 | 2.0 | 0.00 | 0.00 | 0.00 | 88 | 1015.1 |
| 20260505065007 | 48 | 0 | 0.0 | 2.0 | 0.00 | 0.00 | 0.00 | 88 | 1015.1 |
| 20260505064529 | 48 | 0 | 0.0 | 2.0 | 0.00 | 0.00 | 0.00 | 89 | 1015.1 |
| 20260505064008 | 48 | 0 | 0.0 | 0.0 | 0.00 | 0.00 | 0.00 | 89 | 1015.2 |
| 20260505063509 | 48 | 0 | 0.0 | 0.0 | 0.00 | 0.00 | 0.00 | 90 | 1015.1 |
| 20260505063030 | 47 | 0 | 0.0 | 0.0 | 0.00 | 0.00 | 0.00 | 90 | 1015.1 |
| 20260505062512 | 47 | 0 | 0.0 | 0.0 | 0.00 | 0.00 | 0.00 | 90 | 1015.1 |
| 20260505062010 | 47 | 0 | 0.0 | 0.0 | 0.00 | 0.00 | 0.00 | 91 | 1015.2 |
| 20260505061534 | 47 | 0 | 0.0 | 0.0 | 0.00 | 0.00 | 0.00 | 91 | 1015.2 |
| 20260505061012 | 47 | 0 | 0.0 | 0.0 | 0.00 | 0.00 | 0.00 | 91 | 1015.2 |
| 20260505060512 | 47 | 0 | 0.0 | 0.0 | 0.00 | 0.00 | 0.00 | 91 | 1015.1 |
| 20260505060028 | 47 | 0 | 0.0 | 0.0 | 0.00 | 0.00 | 0.00 | 91 | 1015.1 |
| 20260505055514 | 46 | 0 | 0.0 | 0.0 | 0.00 | 0.00 | 0.00 | 91 | 1015.0 |
| 20260505055014 | 46 | 0 | 0.0 | 1.0 | 0.00 | 0.00 | 0.00 | 91 | 1015.0 |
| 20260505054542 | 46 | 0 | 0.0 | 2.0 | 0.00 | 0.00 | 0.00 | 91 | 1015.0 |
| 20260505054013 | 46 | 5 | 0.0 | 2.0 | 0.00 | 0.00 | 0.00 | 91 | 1015.0 |
| 20260505053511 | 46 | 0 | 0.0 | 2.0 | 0.00 | 0.00 | 0.00 | 91 | 1015.0 |
| 20260505053029 | 46 | 0 | 0.0 | 3.0 | 0.00 | 0.00 | 0.00 | 91 | 1014.9 |
| 20260505052510 | 46 | 0 | 1.0 | 3.0 | 0.00 | 0.00 | 0.00 | 91 | 1014.9 |
| 20260505052009 | 46 | 333 | 1.0 | 2.0 | 0.00 | 0.00 | 0.00 | 91 | 1014.9 |
| 20260505051527 | 46 | 0 | 1.0 | 2.0 | 0.00 | 0.00 | 0.00 | 91 | 1014.9 |
| 20260505051009 | 46 | 293 | 1.0 | 2.0 | 0.00 | 0.00 | 0.00 | 91 | 1014.7 |
| 20260505050514 | 46 | 293 | 1.0 | 2.0 | 0.00 | 0.00 | 0.00 | 91 | 1014.9 |
| 20260505041530 | 46 | 15 | 1.0 | 3.0 | 0.00 | 0.00 | 0.00 | 90 | 1014.6 |
| 20260505041009 | 46 | 16 | 1.0 | 3.0 | 0.00 | 0.00 | 0.00 | 90 | 1014.6 |
| 20260505040511 | 46 | 335 | 1.0 | 3.0 | 0.00 | 0.00 | 0.00 | 90 | 1014.5 |
| 20260505040038 | 46 | 333 | 1.0 | 3.0 | 0.00 | 0.00 | 0.00 | 91 | 1014.6 |
| 20260505035514 | 46 | 337 | 1.0 | 3.0 | 0.00 | 0.00 | 0.00 | 92 | 1014.7 |
| 20260505035011 | 46 | 338 | 1.0 | 3.0 | 0.00 | 0.00 | 0.00 | 92 | 1014.6 |
| 20260505034538 | 45 | 338 | 1.0 | 3.0 | 0.00 | 0.00 | 0.00 | 93 | 1014.7 |
| 20260505034011 | 45 | 343 | 0.0 | 2.0 | 0.00 | 0.00 | 0.00 | 94 | 1014.7 |
| 20260505033511 | 45 | 0 | 0.0 | 0.0 | 0.00 | 0.00 | 0.00 | 95 | 1014.7 |
| 20260505033028 | 45 | 0 | 0.0 | 0.0 | 0.00 | 0.00 | 0.00 | 96 | 1014.7 |
| 20260505032512 | 44 | 0 | 0.0 | 0.0 | 0.00 | 0.00 | 0.00 | 96 | 1014.7 |
| 20260505032009 | 44 | 0 | 0.0 | 0.0 | 0.00 | 0.00 | 0.00 | 96 | 1014.7 |
| 20260505031530 | 44 | 0 | 0.0 | 0.0 | 0.00 | 0.00 | 0.00 | 96 | 1014.7 |
| 20260505031008 | 44 | 0 | 0.0 | 0.0 | 0.00 | 0.00 | 0.00 | 96 | 1014.8 |
| 20260505030511 | 44 | 0 | 0.0 | 0.0 | 0.00 | 0.00 | 0.00 | 96 | 1014.8 |
| 20260505030030 | 44 | 0 | 0.0 | 0.0 | 0.00 | 0.00 | 0.00 | 97 | 1014.8 |
| 20260505025513 | 44 | 0 | 0.0 | 1.0 | 0.00 | 0.00 | 0.00 | 97 | 1014.8 |
| 20260505025010 | 44 | 0 | 0.0 | 2.0 | 0.00 | 0.00 | 0.00 | 97 | 1014.9 |
| 20260505024529 | 44 | 0 | 0.0 | 2.0 | 0.00 | 0.00 | 0.00 | 97 | 1014.9 |
| 20260505024011 | 44 | 350 | 0.0 | 2.0 | 0.00 | 0.00 | 0.00 | 97 | 1014.9 |
| 20260505023511 | 44 | 350 | 1.0 | 2.0 | 0.00 | 0.00 | 0.00 | 97 | 1014.9 |
| 20260505023030 | 45 | 350 | 0.0 | 2.0 | 0.00 | 0.00 | 0.00 | 97 | 1014.9 |
| 20260505022508 | 45 | 350 | 0.0 | 2.0 | 0.00 | 0.00 | 0.00 | 97 | 1015.0 |
| 20260505022009 | 45 | 350 | 0.0 | 2.0 | 0.00 | 0.00 | 0.00 | 97 | 1015.1 |
| 20260505021528 | 45 | 350 | 1.0 | 2.0 | 0.00 | 0.00 | 0.00 | 97 | 1015.1 |
| 20260505021012 | 45 | 0 | 0.0 | 2.0 | 0.00 | 0.00 | 0.00 | 97 | 1015.1 |
| 20260505020510 | 45 | 77 | 1.0 | 2.0 | 0.00 | 0.00 | 0.00 | 98 | 1015.0 |
| 20260505020037 | 44 | 81 | 0.0 | 2.0 | 0.00 | 0.00 | 0.00 | 97 | 1015.0 |
| 20260505015511 | 44 | 0 | 0.0 | 2.0 | 0.00 | 0.00 | 0.00 | 98 | 1015.1 |
| 20260505015013 | 43 | 0 | 0.0 | 2.0 | 0.00 | 0.00 | 0.00 | 98 | 1015.0 |
| 20260505014529 | 41 | 0 | 0.0 | 0.0 | 0.00 | 0.00 | 0.00 | 96 | 1015.2 |
| 20260505014011 | 41 | 0 | 0.0 | 0.0 | 0.00 | 0.00 | 0.00 | 96 | 1015.2 |
| 20260505013511 | 41 | 0 | 0.0 | 0.0 | 0.00 | 0.00 | 0.00 | 96 | 1015.2 |
| 20260505013030 | 41 | 0 | 0.0 | 0.0 | 0.00 | 0.00 | 0.00 | 95 | 1015.2 |
| 20260505012511 | 41 | 0 | 0.0 | 0.0 | 0.00 | 0.00 | 0.00 | 95 | 1015.3 |
| 20260505012012 | 41 | 0 | 0.0 | 0.0 | 0.00 | 0.00 | 0.00 | 95 | 1015.3 |
| 20260505011529 | 41 | 0 | 0.0 | 0.0 | 0.00 | 0.00 | 0.00 | 95 | 1015.2 |
| 20260505011012 | 41 | 0 | 0.0 | 0.0 | 0.00 | 0.00 | 0.00 | 95 | 1015.3 |
| 20260505010510 | 42 | 0 | 0.0 | 0.0 | 0.00 | 0.00 | 0.00 | 95 | 1015.4 |
| 20260505010028 | 42 | 0 | 0.0 | 0.0 | 0.00 | 0.00 | 0.00 | 95 | 1015.4 |
| 20260505005511 | 42 | 0 | 0.0 | 0.0 | 0.00 | 0.00 | 0.00 | 95 | 1015.5 |
| 20260505005012 | 42 | 0 | 0.0 | 0.0 | 0.00 | 0.00 | 0.00 | 95 | 1015.4 |
| 20260505004530 | 43 | 0 | 0.0 | 0.0 | 0.00 | 0.00 | 0.00 | 95 | 1015.4 |
| 20260505004010 | 43 | 0 | 0.0 | 0.0 | 0.00 | 0.00 | 0.00 | 96 | 1015.5 |
| 20260505003514 | 44 | 0 | 0.0 | 0.0 | 0.00 | 0.00 | 0.00 | 96 | 1015.5 |
| 20260505003030 | 44 | 0 | 0.0 | 0.0 | 0.00 | 0.00 | 0.00 | 96 | 1015.6 |
| 20260505002511 | 44 | 0 | 0.0 | 0.0 | 0.00 | 0.00 | 0.00 | 96 | 1015.6 |
| 20260505002011 | 44 | 0 | 0.0 | 0.0 | 0.00 | 0.00 | 0.00 | 96 | 1015.5 |
| 20260505001528 | 44 | 0 | 0.0 | 0.0 | 0.00 | 0.00 | 0.00 | 96 | 1015.7 |
| 20260505001012 | 44 | 0 | 0.0 | 0.0 | 0.00 | 0.00 | 0.00 | 96 | 1015.7 |
| 20260505000510 | 44 | 0 | 0.0 | 0.0 | 0.00 | 0.00 | 0.00 | 97 | 1015.7 |
| 20260505000042 | 43 | 0 | 0.0 | 0.0 | 0.00 | 0.00 | 0.00 | 96 | 1015.7 |
| 20260504235535 | 43 | 0 | 0.0 | 0.0 | 0.00 | 0.00 | 0.00 | 95 | 1015.8 |
| 20260504235012 | 43 | 0 | 0.0 | 0.0 | 0.00 | 0.00 | 0.00 | 95 | 1015.9 |
| 20260504234529 | 43 | 0 | 0.0 | 0.0 | 0.00 | 0.00 | 0.00 | 95 | 1015.9 |
| 20260504234010 | 43 | 0 | 0.0 | 0.0 | 0.00 | 0.00 | 0.00 | 95 | 1015.9 |
| 20260504233512 | 43 | 0 | 0.0 | 0.0 | 0.00 | 0.00 | 0.00 | 95 | 1015.8 |
| 20260504233030 | 43 | 0 | 0.0 | 0.0 | 0.00 | 0.00 | 0.00 | 95 | 1015.8 |
| 20260504232511 | 43 | 0 | 0.0 | 0.0 | 0.00 | 0.00 | 0.00 | 94 | 1015.8 |
| 20260504232012 | 44 | 0 | 0.0 | 0.0 | 0.00 | 0.00 | 0.00 | 94 | 1015.9 |
| 20260504231529 | 44 | 0 | 0.0 | 0.0 | 0.00 | 0.00 | 0.00 | 95 | 1015.9 |
| 20260504231013 | 44 | 0 | 0.0 | 0.0 | 0.00 | 0.00 | 0.00 | 95 | 1015.9 |
| 20260504230510 | 45 | 0 | 0.0 | 0.0 | 0.00 | 0.00 | 0.00 | 96 | 1016.0 |
| 20260504230029 | 44 | 0 | 0.0 | 0.0 | 0.00 | 0.00 | 0.00 | 96 | 1016.0 |
| 20260504225510 | 43 | 0 | 0.0 | 0.0 | 0.00 | 0.00 | 0.00 | 94 | 1016.0 |
| 20260504225010 | 43 | 0 | 0.0 | 0.0 | 0.00 | 0.00 | 0.00 | 93 | 1015.9 |
| 20260504224528 | 43 | 0 | 0.0 | 0.0 | 0.00 | 0.00 | 0.00 | 93 | 1015.8 |
| 20260504224013 | 43 | 0 | 0.0 | 0.0 | 0.00 | 0.00 | 0.00 | 93 | 1015.9 |
| 20260504223512 | 44 | 0 | 0.0 | 0.0 | 0.00 | 0.00 | 0.00 | 93 | 1015.9 |
| 20260504223029 | 44 | 0 | 0.0 | 0.0 | 0.00 | 0.00 | 0.00 | 93 | 1015.9 |
| 20260504222510 | 44 | 0 | 0.0 | 0.0 | 0.00 | 0.00 | 0.00 | 93 | 1015.9 |
| 20260504222011 | 44 | 0 | 0.0 | 0.0 | 0.00 | 0.00 | 0.00 | 93 | 1015.9 |
| 20260504221530 | 44 | 0 | 0.0 | 0.0 | 0.00 | 0.00 | 0.00 | 94 | 1015.9 |
| 20260504221010 | 44 | 0 | 0.0 | 0.0 | 0.00 | 0.00 | 0.00 | 93 | 1015.9 |
| 20260504220510 | 45 | 0 | 0.0 | 0.0 | 0.00 | 0.00 | 0.00 | 93 | 1015.9 |
| 20260504220041 | 45 | 0 | 0.0 | 0.0 | 0.00 | 0.00 | 0.00 | 93 | 1016.0 |
| 20260504215513 | 45 | 0 | 0.0 | 0.0 | 0.00 | 0.00 | 0.00 | 93 | 1016.1 |
| 20260504215011 | 45 | 0 | 0.0 | 0.0 | 0.00 | 0.00 | 0.00 | 93 | 1016.1 |
| 20260504214530 | 46 | 0 | 0.0 | 0.0 | 0.00 | 0.00 | 0.00 | 93 | 1016.1 |
| 20260504214012 | 46 | 0 | 0.0 | 0.0 | 0.00 | 0.00 | 0.00 | 93 | 1015.9 |
| 20260504213511 | 46 | 0 | 0.0 | 0.0 | 0.00 | 0.00 | 0.00 | 93 | 1015.9 |
| 20260504213035 | 46 | 0 | 0.0 | 0.0 | 0.00 | 0.00 | 0.00 | 93 | 1015.9 |
| 20260504212511 | 46 | 0 | 0.0 | 0.0 | 0.00 | 0.00 | 0.00 | 92 | 1016.0 |
| 20260504212014 | 46 | 0 | 0.0 | 0.0 | 0.00 | 0.00 | 0.00 | 92 | 1016.0 |
| 20260504211538 | 46 | 0 | 0.0 | 0.0 | 0.00 | 0.00 | 0.00 | 92 | 1016.0 |
| 20260504211011 | 47 | 0 | 0.0 | 0.0 | 0.00 | 0.00 | 0.00 | 92 | 1015.9 |
| 20260504210511 | 47 | 0 | 0.0 | 0.0 | 0.00 | 0.00 | 0.00 | 92 | 1015.9 |
| 20260504210030 | 47 | 0 | 0.0 | 0.0 | 0.00 | 0.00 | 0.00 | 92 | 1015.9 |
| 20260504205512 | 47 | 0 | 0.0 | 0.0 | 0.00 | 0.03 | 0.00 | 92 | 1015.9 |
| 20260504205012 | 47 | 0 | 0.0 | 0.0 | 0.00 | 0.03 | 0.00 | 92 | 1015.9 |
| 20260504204538 | 47 | 0 | 0.0 | 0.0 | 0.00 | 0.03 | 0.00 | 91 | 1015.9 |
| 20260504204011 | 48 | 0 | 0.0 | 0.0 | 0.00 | 0.03 | 0.00 | 91 | 1015.7 |
| 20260504203511 | 48 | 0 | 0.0 | 0.0 | 0.00 | 0.03 | 0.00 | 90 | 1015.8 |
| 20260504203030 | 48 | 0 | 0.0 | 0.0 | 0.00 | 0.03 | 0.00 | 90 | 1015.8 |
| 20260504202511 | 48 | 0 | 0.0 | 0.0 | 0.00 | 0.03 | 0.00 | 89 | 1015.7 |
| 20260504202011 | 48 | 0 | 0.0 | 2.0 | 0.00 | 0.03 | 0.00 | 88 | 1015.9 |
| 20260504201530 | 49 | 0 | 0.0 | 2.0 | 0.00 | 0.03 | 0.00 | 88 | 1015.7 |
| 20260504201014 | 49 | 0 | 0.0 | 3.0 | 0.00 | 0.03 | 0.00 | 88 | 1015.7 |
| 20260504200512 | 49 | 0 | 0.0 | 3.0 | 0.00 | 0.03 | 0.00 | 87 | 1015.7 |
| 20260504200030 | 50 | 74 | 1.0 | 2.0 | 0.00 | 0.03 | 0.00 | 86 | 1015.6 |
| 20260504195511 | 50 | 0 | 0.0 | 1.0 | 0.00 | 0.03 | 0.00 | 85 | 1015.6 |
| 20260504195012 | 51 | 0 | 0.0 | 1.0 | 0.00 | 0.03 | 0.00 | 85 | 1015.7 |
| 20260504194530 | 51 | 0 | 0.0 | 1.0 | 0.00 | 0.03 | 0.00 | 85 | 1015.6 |
| 20260504194014 | 51 | 0 | 0.0 | 3.0 | 0.00 | 0.03 | 0.00 | 85 | 1015.6 |
| 20260504193512 | 52 | 74 | 0.0 | 4.0 | 0.00 | 0.03 | 0.00 | 85 | 1015.5 |
| 20260504193031 | 52 | 59 | 1.0 | 4.0 | 0.00 | 0.03 | 0.00 | 85 | 1015.4 |
| 20260504192514 | 52 | 73 | 0.0 | 3.0 | 0.00 | 0.03 | 0.00 | 84 | 1015.4 |
| 20260504192013 | 53 | 0 | 0.0 | 0.0 | 0.00 | 0.03 | 0.00 | 84 | 1015.4 |
| 20260504191532 | 53 | 0 | 0.0 | 0.0 | 0.00 | 0.03 | 0.00 | 83 | 1015.4 |
| 20260504191012 | 53 | 0 | 0.0 | 0.0 | 0.00 | 0.03 | 0.00 | 83 | 1015.5 |
| 20260504190516 | 53 | 0 | 0.0 | 4.0 | 0.00 | 0.03 | 0.00 | 83 | 1015.4 |
| 20260504190034 | 54 | 0 | 0.0 | 4.0 | 0.00 | 0.03 | 0.00 | 83 | 1015.5 |
| 20260504185511 | 54 | 71 | 0.0 | 2.0 | 0.00 | 0.03 | 0.00 | 83 | 1015.5 |
| 20260504185016 | 54 | 0 | 0.0 | 6.0 | 0.00 | 0.03 | 0.00 | 82 | 1015.4 |
| 20260504184530 | 55 | 0 | 0.0 | 7.0 | 0.00 | 0.03 | 0.00 | 82 | 1015.3 |
| 20260504184015 | 55 | 76 | 3.0 | 7.0 | 0.00 | 0.03 | 0.00 | 82 | 1015.3 |
| 20260504183513 | 55 | 55 | 3.0 | 6.0 | 0.00 | 0.03 | 0.00 | 82 | 1015.3 |
| 20260504183030 | 55 | 67 | 2.0 | 5.0 | 0.00 | 0.03 | 0.00 | 82 | 1015.3 |
| 20260504182512 | 56 | 132 | 2.0 | 5.0 | 0.00 | 0.03 | 0.00 | 81 | 1015.2 |
| 20260504182013 | 56 | 54 | 2.0 | 8.0 | 0.00 | 0.03 | 0.00 | 81 | 1015.2 |
| 20260504181531 | 56 | 65 | 3.0 | 8.0 | 0.00 | 0.03 | 0.00 | 80 | 1015.2 |
| 20260504181012 | 56 | 87 | 4.0 | 8.0 | 0.00 | 0.03 | 0.00 | 80 | 1015.1 |
| 20260504180514 | 56 | 84 | 3.0 | 6.0 | 0.00 | 0.03 | 0.00 | 79 | 1015.2 |
| 20260504180034 | 57 | 133 | 1.0 | 6.0 | 0.00 | 0.03 | 0.00 | 79 | 1015.2 |
| 20260504175512 | 57 | 88 | 2.0 | 6.0 | 0.00 | 0.03 | 0.00 | 79 | 1015.1 |
| 20260504175015 | 57 | 49 | 1.0 | 3.0 | 0.00 | 0.03 | 0.00 | 78 | 1014.9 |
| 20260504174733 | 57 | 0 | 0.0 | 6.0 | 0.00 | 0.03 | 0.00 | 77 | 1014.9 |
| 20260504174013 | 58 | 65 | 3.0 | 6.0 | 0.00 | 0.03 | 0.00 | 77 | 1014.8 |
| 20260504173511 | 58 | 64 | 2.0 | 5.0 | 0.00 | 0.03 | 0.00 | 76 | 1014.9 |
| 20260504173031 | 58 | 0 | 1.0 | 5.0 | 0.00 | 0.03 | 0.00 | 76 | 1014.8 |
| 20260504172509 | 58 | 63 | 1.0 | 10.0 | 0.00 | 0.03 | 0.00 | 76 | 1014.8 |
| 20260504172014 | 58 | 78 | 3.0 | 10.0 | 0.00 | 0.03 | 0.00 | 76 | 1015.0 |
| 20260504171530 | 59 | 109 | 2.0 | 10.0 | 0.00 | 0.03 | 0.00 | 77 | 1015.0 |